User: anonymous   Login
Location: Unspecified
(0.0000°N, 0.0000°E)
Time: 04:36:17
(UTC+00:00)
Language:

MAROC-TUBSAT - Orbit

View from above orbital plane
View from above orbital plane
View from above satellite
View from above satellite

Ground track
Ground track

The orbit data is extracted from the following two-line orbital elements,

1 27004U 01056D   17324.41073185 -.00000036 +00000-0 +89953-5 0  9990
2 27004 099.3810 100.1149 0019020 291.8642 101.6754 13.70125660797441
Epoch (UTC): 20 November 2017 09:51:27
Eccentricity: 0.0019020
inclination: 99.3810°
perigee height: 985 km
apogee height: 1013 km
right ascension of ascending node: 100.1149°
argument of perigee: 291.8642°
revolutions per day: 13.70125660
mean anomaly at epoch: 101.6754°
orbit number at epoch: 79744

The dashed part of the orbit path shows where the satellite is in the earth's shadow,  

DLR